Red Oak, IA

3:45 AM CST on November 22, 2017 (GMT -0600)
Red Oak Municipal

Weather History for KRDK - October, 2013

Change the Weather History Date:

Tuesday, October 22, 2013

  Actual Average Record
Temperature  
Mean Temperature 40 °F -  
Max Temperature 42 °F 66 °F 84 °F (1975)
Min Temperature 37 °F 41 °F 16 °F (1976)
Degree Days  
Heating Degree Days 26    
Moisture  
Dew Point 34 °F    
Average Humidity 76    
Maximum Humidity 87    
Minimum Humidity 70    
Precipitation  
Precipitation 0.00 in - - ()
Sea Level Pressure  
Sea Level Pressure 30.09 in    
Wind  
Wind Speed 9 mph (NNW)    
Max Wind Speed 10 mph    
Max Gust Speed 17 mph    
Visibility 10 miles    
Events      
Averages and records for this station are not official NWS values.
T = Trace of Precipitation, MM = Missing Value Source: NWS Daily Summary

Daily Weather History Graph

Daily Weather History Graph

Search for Another Location

Airport or City:

Trip Planner

Search our weather history database for the weather conditions in past years. The results will help you decide how hot, cold, wet, or windy it might be!

Date:

Astronomy

Oct. 22, 2013 Rise Set
Actual Time 7:40 AM CDT 6:29 PM CDT
Civil Twilight 7:12 AM CDT 6:57 PM CDT
Nautical Twilight 6:40 AM CDT 7:29 PM CDT
Astronomical Twilight 6:08 AM CDT 8:01 PM CDT
Moon 9:09 PM CDT 11:10 AM CDT
Length of Visible Light 11h 45m
Length of Day
10h 49m
Waning Gibbous, 86% of the Moon is Illuminated
Oct 22
Waning Gibbous
Oct 26
Last Quarter
Nov 3
New
Nov 9
First Quarter
Nov 17
Full

Hourly Weather History & Observations

Time (CDT) Temp. Windchill Dew Point Humidity Pressure Visibility Wind Dir Wind Speed Gust Speed Precip Events Conditions
4:35 PM 42.8 °F 37.0 °F 35.6 °F 76% 30.05 in 10.0 mi NNW 10.4 mph 17.3 mph N/A   Overcast
4:55 PM 42.8 °F 37.0 °F 35.6 °F 76% 30.05 in 10.0 mi NNW 10.4 mph - N/A   Overcast
5:15 PM 42.8 °F 37.5 °F 33.8 °F 70% 30.06 in 10.0 mi NNW 9.2 mph - N/A   Overcast
5:35 PM 42.8 °F 37.0 °F 33.8 °F 70% 30.07 in 10.0 mi North 10.4 mph - N/A   Overcast
5:55 PM 42.8 °F 37.0 °F 33.8 °F 70% 30.07 in 10.0 mi North 10.4 mph - N/A   Overcast
6:15 PM 41.0 °F 36.4 °F 33.8 °F 76% 30.08 in 10.0 mi North 6.9 mph 12.7 mph N/A   Overcast
6:35 PM 41.0 °F 35.2 °F 33.8 °F 76% 30.08 in 10.0 mi North 9.2 mph - N/A   Overcast
6:55 PM 41.0 °F 35.8 °F 33.8 °F 76% 30.08 in 10.0 mi North 8.1 mph 13.8 mph N/A   Overcast
7:15 PM 41.0 °F 36.4 °F 33.8 °F 76% 30.09 in 10.0 mi NNW 6.9 mph - N/A   Overcast
7:35 PM 41.0 °F 35.8 °F 33.8 °F 76% 30.09 in 10.0 mi NNW 8.1 mph - N/A   Overcast
7:55 PM 41.0 °F 36.4 °F 33.8 °F 76% 30.10 in 10.0 mi North 6.9 mph - N/A   Overcast
8:15 PM 41.0 °F 35.2 °F 33.8 °F 76% 30.10 in 10.0 mi North 9.2 mph - N/A   Overcast
8:35 PM 41.0 °F 35.2 °F 33.8 °F 76% 30.11 in 10.0 mi NNW 9.2 mph - N/A   Overcast
8:55 PM 41.0 °F 34.7 °F 33.8 °F 76% 30.10 in 10.0 mi NNW 10.4 mph - N/A   Overcast
9:35 PM 41.0 °F 35.8 °F 33.8 °F 76% 30.11 in 10.0 mi NNW 8.1 mph 15.0 mph N/A   Overcast
10:15 PM 39.2 °F 33.6 °F 33.8 °F 81% 30.11 in 10.0 mi NNW 8.1 mph - N/A   Overcast
10:35 PM 39.2 °F 34.2 °F 33.8 °F 81% 30.12 in 10.0 mi NNW 6.9 mph - N/A   Overcast
10:55 PM 39.2 °F 34.2 °F 32.0 °F 75% 30.11 in 10.0 mi NNW 6.9 mph - N/A   Mostly Cloudy
11:15 PM 39.2 °F 35.0 °F 32.0 °F 75% 30.11 in 10.0 mi North 5.8 mph - N/A   Mostly Cloudy
11:35 PM 37.4 °F 34.9 °F 33.8 °F 87% 30.10 in 10.0 mi NNW 3.5 mph - N/A   Overcast
11:55 PM 39.2 °F 34.2 °F 32.0 °F 75% 30.10 in 10.0 mi NNW 6.9 mph - N/A   Overcast